Regional Weather Roundup
Issued by NWS San Diego, CA

Home | Current Version | Previous Version | Text Only | Print | Product List | Glossary On
Versions: 1 2 3 4 5 6 7 8 9 10 11 12 13 14 15 16 17 18 19 20 21 22 23 24 25 26 27 28 29 30 31 32 33 34 35 36 37 38 39 40 41 42 43 44 45 46 47 48 49 50
000
ASUS46 KSGX 281010
RWRSGX

SAN DIEGO HOURLY WEATHER ROUNDUP
NATIONAL WEATHER SERVICE SAN DIEGO CA
300 AM PDT MON JUL 28 2014

NOTE: "FAIR" INDICATES FEW OR NO CLOUDS BELOW 12,000 FEET WITH NO
SIGNIFICANT WEATHER AND/OR OBSTRUCTIONS TO VISIBILITY.

CAZ042-043-060-061-PZZ750-775-281100-

GREATER SAN DIEGO AREA

CITY           SKY/WX    TMP DP  RH WIND       PRES   REMARKS
LINDBERGH FLD  CLOUDY    71  67  87 NW3       30.04R
POINT LOMA       N/A     69  66  92 W8          N/A
NATIONAL CITY    N/A     71  68  89 W3        30.03S
CHULA VISTA      N/A     71  68  92 CALM      29.96S
IMPERIAL BEACH MOCLDY    70  68  93 W7        30.03R
BROWN FIELD    PTCLDY    68  66  93 W3        30.03S
MIRAMAR MCAS   PTCLDY    67  64  90 SW5       30.03S
MONTGOMERY FLD CLOUDY    70  66  87 W3        30.04R

$$

NORTH SAN DIEGO COUNTY

CITY           SKY/WX    TMP DP  RH WIND       PRES   REMARKS
CAMP PENDLETON CLOUDY    70  65  84 MISG      30.02F
OCEANSIDE AP   CLOUDY    71  67  87 CALM      30.01F
VISTA            N/A     70  66  85 CALM      30.00S
CARLSBAD       MOCLDY    70  67  90 W3        30.02S
DEL MAR          N/A     69  68  97 CALM      30.04S
FALLBROOK        N/A     69  67  94 CALM      30.03S
ESCONDIDO        N/A     71  65  80 S2        30.03F
SAN MARCOS       N/A     70  65  85 CALM      30.00S
POWAY            N/A     68  62  81 CALM      30.03R
R. PENASQUITOS   N/A     70  66  89 CALM      30.02S

$$

EAST SAN DIEGO COUNTY

CITY           SKY/WX    TMP DP  RH WIND       PRES   REMARKS
RAMONA         PTCLDY    66  60  81 CALM      30.06R
SANTEE LAKES     N/A     68  62  79 CALM      30.03S
GILLESPIE FLD  FAIR      70  63  78 NW3       30.05S
LA MESA          N/A     69  67  93 CALM      29.96S
JAMUL            N/A     67  63  88 CALM      30.00S
DESCANSO N       N/A     65  58  77 CALM      29.87S
MT. LAGUNA OBS   N/A     64  53  68 CALM      29.85S
CAMPO            N/A     63  56  78 NE3       30.08S

$$

ORANGE COUNTY AND THE LOS ANGELES BASIN

CITY           SKY/WX    TMP DP  RH WIND       PRES   REMARKS
JOHN WAYNE AP  CLOUDY    73  65  75 S7        30.02S
LAGUNA BEACH     N/A     71  68  90 CALM      29.99S
LAKE FOREST FR   N/A     69  60  72 CALM      29.91R
SANTA ANA        N/A     70  67  89 CALM      29.98R
HUNTINGTON BCH   N/A     69  67  92 SW1       30.04R
LOS ALAMITOS   FAIR      70  66  87 SE3       30.03R
FULLERTON      CLOUDY    71  65  81 S3        30.02R
LONG BEACH     CLOUDY    71  64  78 CALM      30.02S
L.A. AP        CLOUDY    68  65  90 W5        30.03R
L.A. DOWNTOWN  CLOUDY    69  64  84 W3        30.02R

$$

THE INLAND EMPIRE

CITY           SKY/WX    TMP DP  RH WIND       PRES   REMARKS
CORONA         CLOUDY    73  60  63 W6        30.03R
CHINO          CLOUDY    75  48  38 NW8       30.03S
ONTARIO        CLOUDY    76  50  40 W7        30.03S
RIVERSIDE AP   CLOUDY    76  54  46 CALM      30.03R
RIV CYN CREST    N/A     77  56  49 CALM      30.01S
MORENO VALLEY    N/A     75  50  41 CALM        N/A
MARCH ARB      CLOUDY    75  44  32 NW7       30.06R
HORSETHIEF CYN   N/A     76  49  39 NW5       30.00S
PERRIS           N/A     74  61  65 SE1       30.04R
MENIFEE          N/A     73  61  67 SE8       30.10R
HEMET EAST       N/A     72  57  59 CALM      29.98S
FRENCH VALLEY  FAIR      70  59  68 CALM      30.06S
TEMECULA         N/A     70  65  82 W1        30.01F

$$

SAN BERNARDINO AND RIVERSIDE COUNTY MOUNTAINS

CITY           SKY/WX    TMP DP  RH WIND       PRES   REMARKS
BIG BEAR AP    MOCLDY    54  52  94 CALM      30.36F
BIG BEAR SHEA    N/A     55  50  82 CALM      29.99F
ANGELUS OAKS     N/A     63  54  74 MISG      29.85F
PINE COVE        N/A     62  55  78 N3        29.95S

$$

SOUTHERN DESERT INCLUDING THE COACHELLA VALLEY

CITY           SKY/WX    TMP DP  RH WIND       PRES   REMARKS
PALM SPRINGS   PTCLDY    91  59  33 NW6       29.94S
THERMAL        MOCLDY    87  67  51 NW5       29.86S
BLYTHE           N/A    N/A N/A N/A MISG      29.90S
IMPERIAL AP    CLEAR     86  61  42 SW5       29.87S
EL CENTRO NAS  CLEAR     87  61  41 SW8       29.87S
YUMA AZ        CLEAR     87  65  47 CALM      29.90S

$$

UPPER DESERT

CITY           SKY/WX    TMP DP  RH WIND       PRES   REMARKS
VICTORVILLE AP LGT RAIN  73  64  73 W3        30.10S
HESPERIA         N/A     75  61  62 W1        30.02F
APPLE VALLEY     N/A     76  62  62 CALM      30.14F
GRAY BUTTE AP  NOT AVBL
PALMDALE       CLOUDY    80  36  20 SW5       30.08F
LANCASTER      CLOUDY    77  37  23 W5        30.07S
EDWARDS AFB    CLOUDY    82  56  41 W6        30.05R
DAGGETT        CLOUDY    81  61  50 W8        30.02F
29 PALMS N     MOCLDY    85  56  37 NW9       30.08S
NEEDLES        CLEAR     90  54  29 W7        29.93S

$$

REGIONAL REPORTS

CITY           SKY/WX    TMP DP  RH WIND       PRES   REMARKS
SANTA BARBARA  CLOUDY    65  62  90 E9        29.99R
SANDBERG       CLOUDY    73  44  35 SW6       30.22F
MT. WILSON       N/A     70  37  30 SW6         N/A
LAS VEGAS NV   CLOUDY    81  61  50 S8        30.02R
PHOENIX AZ     CLOUDY    87  61  41 SE8       29.98R
TIJUANA        PTCLDY    70  64  83 NW6       30.05S
ENSENADA NW      N/A     69  32  25 CALM      29.99F

$$

OFFSHORE ISLANDS

CITY           SKY/WX    TMP DP  RH WIND       PRES   REMARKS
CATALINA ARPT  CLOUDY    69  44  40 SW5       30.07S THUNDER
SAN NICOLAS IS MOCLDY   N/A N/A N/A CALM      30.03R

$$

MARINE AND OFFSHORE BUOY REPORTS

STATION/POSITION SKY/WX   TEMP    WIND        PRES    SWELL
                          AIR SEA DIR/SP/G            HT/PER/DIR
                          (F)     (DEG/KT/KT) (MB)    (FT/S/D)
TANNER BANKS               66 67  300/ 10/ 10 1016.4S   5/310/ 8
S CLEMENTE BASIN           69 71  310/  6/  8 1016.6R   3/200/14
SAN NICOLAS IS.               67                N/A     2/190/14
SO. S. ROSA ISLA           65 67  290/ 12/ 14 1015.7R   3/15
W. S. BARBARA CH           63 64  300/ 14/ 16 1014.8R   3/320/ 8
S. MONICA BASIN            67 69  230/  6/  6 1016.1R   3/170/15
S PEDRO CHANNEL               67                N/A     2/170/14
DANA POINT                    70                N/A     2/180/14
CMP PENDLETON NS              71                N/A     2/210/13
OCEANSIDE OFFSHR              72                N/A     2/190/13
TORREY PINES OTR              71                N/A     2/200/13
LA JOLLA 1                 71 72  250/  3/  3 1016.8R
MISSION BAY BUOY              71                N/A     2/190/15
SAN DIEGO BAY                 73              1017.2S
POINT LOMA SOUTH              70                N/A     2/190/14

$$



USA.gov is the U.S. government's official web portal to all federal, state and local government web resources and services.